Regional Weather Roundup
Issued by NWS

Home | Current Version | Previous Version | Graphics & Text | Print | Product List | Glossary Off
Versions: 1 2 3 4 5 6 7 8 9 10 11 12 13 14 15 16 17 18 19 20 21 22 23 24 25 26 27 28 29 30 31 32 33 34 35 36 37 38 39 40 41 42 43 44 45 46 47 48 49 50

000
ASUS43 KTOP 010808
RWRKS

WEATHER ROUNDUP FOR KANSAS
NATIONAL WEATHER SERVICE GOODLAND KS
300 AM CDT SAT AUG 01 2015

NOTE:  "FAIR" INDICATES FEW OR NO CLOUDS BELOW 12,000 FEET WITH NO
SIGNIFICANT WEATHER AND/OR OBSTRUCTIONS TO VISIBILITY.

KSZ001>006-013>018-027>032-041>047-010900-
NORTHWEST KANSAS

CITY           SKY/WX    TMP DP  RH WIND       PRES   REMARKS
GOODLAND       CLEAR     69  60  73 SW14      30.18F
HAYS           CLEAR     72  63  73 SW8       30.11F
HILL CITY      CLEAR     71  65  81 SW3       30.11F
RUSSELL        CLEAR     71  69  93 S9        30.09F
$$

KSZ061>065-074>080-084>089-010900-
SOUTHWEST KANSAS

CITY           SKY/WX    TMP DP  RH WIND       PRES   REMARKS
DODGE CITY     CLEAR     70  67  90 SW6       30.14F
ELKHART          N/A     67  62  84 SE5         N/A
GARDEN CITY    PTCLDY    67  65  93 S5        30.15F
GREAT BEND     CLEAR     70  66  88 SW3       30.12R
LIBERAL        MOCLDY    72  66  83 SE5       30.16S
PRATT          CLEAR     70  68  94 CALM      30.13S
$$

KSZ066>073-081>083-090>101-010900-
SOUTHEAST KANSAS

CITY           SKY/WX    TMP DP  RH WIND       PRES   REMARKS
CHANUTE        CLEAR     70  68  93 CALM      30.07F
COFFEYVILLE    CLEAR     68  67  96 SE3       30.06F
HUTCHINSON     CLEAR     73  70  90 CALM      30.10S
MEDICINE LODGE   N/A     73  70  90 CALM      30.10S
NEWTON         CLEAR     72  66  83 S5        30.12S
PARSONS        CLEAR     66  66 100 E3        30.08F
WICHITA INTL   CLEAR     74  71  91 S5        30.09S
WICHITA JABRA  CLEAR     74  71  91 S5        30.09F
WICHITA MCCONL CLEAR     73  71  92 S6        30.09F
WINFIELD       CLEAR     73  72  96 CALM      30.10S
$$

KSZ007>012-019>026-033>040-048>060-102>105-010900-
NORTHEAST KANSAS

CITY           SKY/WX    TMP DP  RH WIND       PRES   REMARKS
CONCORDIA      PTCLDY    71  65  81 CALM      30.07F
EMPORIA        CLEAR     70  68  93 CALM      30.09S
LAWRENCE       CLEAR     68  67  96 CALM      30.06F
MANHATTAN      PTCLDY    71  70  96 CALM      30.06F
MARYSVILLE     PTCLDY    72  70  94 CALM      30.07F
OLATHE IND     CLEAR     73  67  81 S6        30.08F
OLATHE EXE     CLEAR     71  66  84 S5        30.06F
SALINA         CLEAR     72  68  87 S6        30.08S
TOPEKA BILLARD CLEAR     73  71  93 CALM      30.06F
TOPEKA FORBES  CLEAR     73  67  81 S5        30.07S
$$



USA.gov is the U.S. government's official web portal to all federal, state and local government web resources and services.